Location: ??????????
(44.2167°N, 135.5333°E)
Time: 13:49:34
(UTC+00:00)

Cosmos 921 Rocket - Pass Details

Date: 15 June 2025
Orbit: 564 x 622 km, 75.8° (Epoch: 15 July)

Event Time Altitude Azimuth Distance (km) Brightness Sun altitude
Rises 12:23:14 0° 209° (SSW) 2,783 6.2 -13.7°
Reaches altitude 10° 12:25:27 10° 214° (SW) 1,897 5.4 -13.9°
Maximum altitude 12:29:35 53° 291° (WNW) 735 3.8 -14.4°
Drops below altitude 10° 12:33:50 10° 9° (N) 1,948 6.3 -14.8°
Sets 12:36:09 0° 14° (NNE) 2,866 7.1 -15.0°
